EW1669 Weather Reports


Display with metric or nautical units.
time (UTC)temp
F
wind
direction
speed
MPH
gust
MPH
rain 1hr
in
rain 24hr
in
rain mn
in
humidity
%
barometer
mb
20260905195518 97 178 0.0 9.0 0.00 0.00 0.00 25 1017.7
20260905194751 97 152 0.0 7.0 0.00 0.00 0.00 24 1017.7
20260905194143 97 185 0.0 7.0 0.00 0.00 0.00 24 1018.0
20260905193641 97 207 0.0 4.0 0.00 0.00 0.00 25 1017.7
20260905193058 99 180 0.0 6.0 0.00 0.00 0.00 24 1018.0
20260905192522 97 184 0.0 2.0 0.00 0.00 0.00 24 1018.0
20260905191910 98 177 1.0 2.0 0.00 0.00 0.00 25 1018.0
20260905191405 98 206 0.0 2.0 0.00 0.00 0.00 25 1018.3
20260905190731 97 195 1.0 2.0 0.00 0.00 0.00 25 1018.3
20260905190057 93 207 0.0 0.0 0.00 0.00 0.00 27 1018.0
20260905185418 94 139 0.0 10.0 0.00 0.00 0.00 27 1018.3
20260905184908 96 121 0.0 10.0 0.00 0.00 0.00 25 1018.3
20260905184309 97 162 0.0 4.0 0.00 0.00 0.00 26 1018.3
20260905183551 98 158 0.0 8.0 0.00 0.00 0.00 25 1019.0
20260905183008 98 177 0.0 1.0 0.00 0.00 0.00 26 1018.7
20260905182313 95 208 0.0 0.0 0.00 0.00 0.00 28 1019.0
20260905181650 94 107 0.0 2.0 0.00 0.00 0.00 29 1019.0
20260905181316 94 115 1.0 7.0 0.00 0.00 0.00 29 1018.7
20260905180429 94 225 0.0 1.0 0.00 0.00 0.00 29 1019.0
20260905175600 93 152 0.0 6.0 0.00 0.00 0.00 29 1018.7
20260905174940 94 187 4.0 6.0 0.00 0.00 0.00 29 1019.4
20260905174341 95 119 2.0 3.0 0.00 0.00 0.00 28 1019.0
20260905173733 93 200 0.0 4.0 0.00 0.00 0.00 30 1019.0
20260905173210 93 140 3.0 4.0 0.00 0.00 0.00 31 1019.0
20260905172815 92 162 0.0 6.0 0.00 0.00 0.00 30 1019.4
20260905171943 93 121 0.0 0.0 0.00 0.00 0.00 30 1019.4
20260905171323 94 173 0.0 0.0 0.00 0.00 0.00 30 1019.0
20260905170659 92 203 0.0 0.0 0.00 0.00 0.00 31 1019.4
20260905170345 93 179 0.0 0.0 0.00 0.00 0.00 31 1019.0
20260905165518 93 200 0.0 6.0 0.00 0.00 0.00 30 1019.4
20260905164857 92 125 0.0 3.0 0.00 0.00 0.00 32 1019.4
20260905164235 91 179 0.0 4.0 0.00 0.00 0.00 34 1019.4
20260905163822 90 165 0.0 1.0 0.00 0.00 0.00 34 1019.4
20260905162910 90 181 0.0 1.0 0.00 0.00 0.00 34 1019.4
20260905162406 89 155 0.0 0.0 0.00 0.00 0.00 35 1019.4
20260905161854 88 188 0.0 0.0 0.00 0.00 0.00 36 1019.4
20260905161221 89 195 0.0 1.0 0.00 0.00 0.00 35 1019.4
20260905160607 88 171 0.0 3.0 0.00 0.00 0.00 36 1019.4
20260905160212 88 162 2.0 3.0 0.00 0.00 0.00 37 1019.4
20260905155437 88 209 0.0 0.0 0.00 0.00 0.00 38 1019.0
20260905154810 87 175 0.0 0.0 0.00 0.00 0.00 39 1019.0
20260905154112 87 187 0.0 1.0 0.00 0.00 0.00 41 1019.0
20260905153737 85 160 0.0 1.0 0.00 0.00 0.00 43 1019.4
20260905152906 84 190 0.0 0.0 0.00 0.00 0.00 44 1019.0
20260905152306 83 194 0.0 1.0 0.00 0.00 0.00 46 1019.0
20260905151645 82 165 0.0 0.0 0.00 0.00 0.00 48 1019.0
20260905151004 82 162 0.0 1.0 0.00 0.00 0.00 49 1019.0
20260905150344 80 145 0.0 1.0 0.00 0.00 0.00 51 1019.4
20260905145648 80 188 0.0 2.0 0.00 0.00 0.00 53 1019.4
20260905145236 79 135 1.0 8.0 0.00 0.00 0.00 55 1019.0
20260905144408 79 136 0.0 6.0 0.00 0.00 0.00 55 1019.7
20260905143752 78 192 4.0 6.0 0.00 0.00 0.00 57 1019.4
20260905143117 78 196 1.0 2.0 0.00 0.00 0.00 58 1019.4
20260905142517 77 195 0.0 7.0 0.00 0.00 0.00 59 1019.4
20260905141926 76 201 4.0 7.0 0.00 0.00 0.00 60 1019.4
20260905141259 75 196 0.0 3.0 0.00 0.00 0.00 62 1019.4
20260905140653 75 184 0.0 4.0 0.00 0.00 0.00 62 1019.0
20260905140019 75 127 2.0 4.0 0.00 0.00 0.00 63 1019.0
20260905135407 74 177 1.0 3.0 0.00 0.00 0.00 64 1019.4
20260905135230 73 145 0.0 4.0 0.00 0.00 0.00 65 1019.0
20260905134116 73 150 0.0 3.0 0.00 0.00 0.00 66 1019.0
20260905133518 73 139 3.0 3.0 0.00 0.00 0.00 67 1019.0
20260905133110 72 155 0.0 2.0 0.00 0.00 0.00 67 1019.0
20260905132217 72 181 0.0 2.0 0.00 0.00 0.00 69 1019.0
20260905131622 71 165 0.0 1.0 0.00 0.00 0.00 70 1018.7
20260905130954 70 138 1.0 6.0 0.00 0.00 0.00 72 1018.7
20260905130307 70 140 1.0 6.0 0.00 0.00 0.00 72 1018.7
20260905125713 69 140 4.0 6.0 0.00 0.00 0.00 73 1018.3
20260905125021 69 146 4.0 6.0 0.00 0.00 0.00 73 1018.3
20260905124411 69 143 2.0 3.0 0.00 0.00 0.00 73 1018.3
20260905123808 69 146 2.0 3.0 0.00 0.00 0.00 73 1018.3
20260905123200 69 144 0.0 3.0 0.00 0.00 0.00 73 1018.3
20260905122540 69 149 0.0 3.0 0.00 0.00 0.00 73 1018.3
20260905121917 69 142 3.0 4.0 0.00 0.00 0.00 72 1018.0
20260905121400 69 128 3.0 4.0 0.00 0.00 0.00 72 1018.0
20260905120717 70 138 2.0 4.0 0.00 0.00 0.00 71 1018.0
20260905120116 70 135 2.0 4.0 0.00 0.00 0.00 71 1018.3
20260905115558 70 146 4.0 4.0 0.00 0.00 0.00 70 1018.3
20260905115058 70 147 3.0 4.0 0.00 0.00 0.00 70 1018.0
20260905114505 70 143 0.0 4.0 0.00 0.00 0.00 70 1018.3
20260905113924 70 148 4.0 4.0 0.00 0.00 0.00 70 1018.3
20260905113533 71 150 1.0 3.0 0.00 0.00 0.00 69 1018.0
20260905112716 71 157 1.0 3.0 0.00 0.00 0.00 69 1018.3
20260905112100 71 144 2.0 4.0 0.00 0.00 0.00 68 1018.3
20260905111504 71 136 4.0 4.0 0.00 0.00 0.00 67 1018.3
20260905111105 71 148 1.0 6.0 0.00 0.00 0.00 67 1018.3
20260905110339 72 142 2.0 6.0 0.00 0.00 0.00 66 1018.0
20260905105732 72 140 0.0 0.0 0.00 0.00 0.00 66 1018.3
20260905105112 72 138 0.0 2.0 0.00 0.00 0.00 65 1018.3
20260905104552 72 136 1.0 3.0 0.00 0.00 0.00 64 1018.3
20260905103917 72 136 0.0 3.0 0.00 0.00 0.00 64 1018.3
20260905103304 73 135 1.0 3.0 0.00 0.00 0.00 64 1018.3
20260905102846 73 130 0.0 2.0 0.00 0.00 0.00 63 1018.3
20260905102011 73 136 0.0 2.0 0.00 0.00 0.00 63 1018.0
20260905101411 73 136 0.0 0.0 0.00 0.00 0.00 63 1018.3
20260905100717 73 146 0.0 0.0 0.00 0.00 0.00 62 1018.3
20260905100059 73 146 0.0 0.0 0.00 0.00 0.00 62 1018.0
20260905095500 74 146 0.0 0.0 0.00 0.00 0.00 61 1018.0
20260905094926 74 146 0.0 0.0 0.00 0.00 0.00 61 1018.3
20260905094252 74 146 0.0 0.0 0.00 0.00 0.00 61 1018.3
20260905093753 74 145 0.0 0.0 0.00 0.00 0.00 60 1018.3
20260905093122 74 144 0.0 0.0 0.00 0.00 0.00 60 1017.7
20260905092447 74 146 0.0 0.0 0.00 0.00 0.00 60 1018.3
20260905091752 74 145 0.0 0.0 0.00 0.00 0.00 59 1018.3
20260905091116 74 148 0.0 0.0 0.00 0.00 0.00 59 1018.3
20260905090445 74 148 0.0 1.0 0.00 0.00 0.00 59 1018.3
20260905085824 74 148 0.0 0.0 0.00 0.00 0.00 59 1018.3
20260905085523 74 148 0.0 0.0 0.00 0.00 0.00 58 1018.3
20260905084558 74 149 0.0 1.0 0.00 0.00 0.00 58 1018.3
20260905084433 74 149 0.0 0.0 0.00 0.00 0.00 58 1018.0
20260905083315 75 154 0.0 0.0 0.00 0.00 0.00 58 1018.3
20260905083202 75 147 0.0 0.0 0.00 0.00 0.00 58 1018.3
20260905082118 75 139 0.0 0.0 0.00 0.00 0.00 57 1018.0
20260905081841 75 144 0.0 0.0 0.00 0.00 0.00 57 1018.3
20260905081110 75 140 0.0 0.0 0.00 0.00 0.00 57 1018.0
20260905080514 75 129 0.0 0.0 0.00 0.00 0.00 57 1018.0
20260905075909 76 148 0.0 0.0 0.00 0.00 0.00 56 1018.3
20260905075359 76 155 0.0 0.0 0.00 0.00 0.00 56 1018.3
20260905074800 76 148 0.0 0.0 0.00 0.00 0.00 55 1018.0
20260905074119 76 142 0.0 3.0 0.00 0.00 0.00 55 1018.3
20260905073419 77 136 0.0 7.0 0.00 0.00 0.00 54 1018.3
20260905073016 77 141 5.0 7.0 0.00 0.00 0.00 54 1018.3
20260905072116 77 176 0.0 6.0 0.00 0.00 0.00 54 1018.3
20260905071515 77 138 2.0 6.0 0.00 0.00 0.00 53 1018.3
20260905070912 77 140 0.0 6.0 0.00 0.00 0.00 53 1018.3
20260905070358 78 140 1.0 2.0 0.00 0.00 0.00 52 1018.7
20260905065511 78 133 0.0 2.0 0.00 0.00 0.00 52 1018.3
20260905064857 78 121 0.0 4.0 0.00 0.00 0.00 51 1018.3
20260905064220 78 136 0.0 4.0 0.00 0.00 0.00 50 1018.3
20260905063821 78 151 0.0 1.0 0.00 0.00 0.00 50 1018.3
20260905062946 78 135 0.0 0.0 0.00 0.00 0.00 49 1018.7
20260905062359 78 179 0.0 0.0 0.00 0.00 0.00 47 1018.3
20260905061759 80 140 0.0 2.0 0.00 0.00 0.00 45 1018.3
20260905061145 80 147 0.0 1.0 0.00 0.00 0.00 45 1018.3
20260905060646 80 135 0.0 0.0 0.00 0.00 0.00 45 1018.3
20260905060231 80 135 0.0 0.0 0.00 0.00 0.00 45 1018.0
20260905055637 80 129 0.0 0.0 0.00 0.00 0.00 45 1018.3
20260905054811 80 138 0.0 0.0 0.00 0.00 0.00 45 1018.3
20260905054120 80 91 0.0 0.0 0.00 0.00 0.00 46 1018.0
20260905053511 80 90 0.0 0.0 0.00 0.00 0.00 46 1018.0
20260905052956 80 100 0.0 0.0 0.00 0.00 0.00 45 1018.0
20260905052601 80 51 0.0 0.0 0.00 0.00 0.00 45 1018.0
20260905051754 80 48 0.0 0.0 0.00 0.00 0.00 45 1018.0
20260905051217 80 54 0.0 2.0 0.00 0.00 0.00 45 1018.3
20260905050620 80 118 1.0 2.0 0.00 0.00 0.00 45 1018.3
20260905050020 80 288 0.0 0.0 0.00 0.00 0.00 47 1018.0
20260905045404 80 288 0.0 0.0 0.00 0.00 0.00 47 1017.7
20260905044747 79 288 0.0 0.0 0.00 0.00 0.00 47 1017.7
20260905044112 80 292 0.0 0.0 0.00 0.00 0.00 47 1018.0
20260905043607 80 292 0.0 0.0 0.00 0.00 0.00 47 1017.7
20260905043006 80 292 0.0 0.0 0.00 0.00 0.00 47 1017.7
20260905042503 80 292 0.0 0.0 0.00 0.00 0.00 47 1017.7
20260905042042 80 291 0.0 0.0 0.00 0.00 0.00 47 1017.7
20260905041528 80 275 0.0 0.0 0.00 0.00 0.00 46 1017.7
20260905040659 80 272 0.0 0.0 0.00 0.00 0.00 47 1017.7
20260905040301 80 272 0.0 0.0 0.00 0.00 0.00 47 1017.3
20260905035358 80 271 0.0 1.0 0.00 0.00 0.00 46 1018.0
20260905034425 80 268 0.0 0.0 0.00 0.00 0.00 46 1017.7
20260905033711 81 294 0.0 0.0 0.00 0.00 0.00 46 1017.7
20260905033110 81 282 0.0 0.0 0.00 0.00 0.00 45 1018.0
20260905032418 81 281 0.0 0.0 0.00 0.00 0.00 45 1017.7
20260905031733 81 268 0.0 0.0 0.00 0.00 0.00 44 1017.7
20260905030838 82 268 0.0 0.0 0.00 0.00 0.00 44 1017.7
20260905030304 82 271 0.0 0.0 0.00 0.00 0.00 44 1017.3
20260905025708 82 283 0.0 0.0 0.00 0.00 0.00 44 1017.3
20260905025047 82 283 0.0 0.0 0.00 0.00 0.00 44 1017.3
20260905024359 83 269 0.0 0.0 0.00 0.00 0.00 44 1017.3
20260905023759 83 266 0.0 0.0 0.00 0.00 0.00 43 1017.3
20260905023549 83 253 0.0 0.0 0.00 0.00 0.00 42 1017.3
20260905022504 84 239 0.0 0.0 0.00 0.00 0.00 41 1017.7
20260905022055 84 242 0.0 0.0 0.00 0.00 0.00 39 1017.3
20260905021310 85 242 0.0 0.0 0.00 0.00 0.00 37 1017.3
20260905020923 87 186 0.0 0.0 0.00 0.00 0.00 34 1017.0
20260905020115 87 177 0.0 0.0 0.00 0.00 0.00 32 1017.0
20260905015510 88 172 0.0 0.0 0.00 0.00 0.00 31 1017.0
20260905015008 87 189 0.0 0.0 0.00 0.00 0.00 30 1017.0
20260905014414 87 193 0.0 0.0 0.00 0.00 0.00 30 1017.0
20260905013816 88 193 0.0 0.0 0.00 0.00 0.00 30 1016.7
20260905013312 88 193 0.0 1.0 0.00 0.00 0.00 30 1016.7
20260905012806 88 195 0.0 1.0 0.00 0.00 0.00 29 1016.7
20260905012151 89 194 0.0 1.0 0.00 0.00 0.00 30 1016.7
20260905011310 89 192 0.0 0.0 0.00 0.00 0.00 30 1016.7
20260905010648 89 193 0.0 0.0 0.00 0.00 0.00 30 1016.7
20260905010034 90 188 0.0 1.0 0.00 0.00 0.00 29 1016.7
20260905005521 91 191 0.0 1.0 0.00 0.00 0.00 26 1016.7
20260905004850 91 147 0.0 0.0 0.00 0.00 0.00 25 1016.7
20260905004222 91 145 0.0 0.0 0.00 0.00 0.00 25 1016.7
20260905003604 91 136 0.0 0.0 0.00 0.00 0.00 25 1016.3
20260905003248 91 130 0.0 0.0 0.00 0.00 0.00 26 1016.7
20260905002358 92 146 0.0 0.0 0.00 0.00 0.00 27 1016.3
20260905001715 92 143 0.0 0.0 0.00 0.00 0.00 27 1016.7
20260905001054 0 0.0 0.0 0.00 0.00 0.00 1016.0
20260904235816 91 145 0.0 0.0 0.00 0.00 0.00 27 1016.3
20260904235145 91 134 0.0 1.0 0.00 0.00 0.00 28 1016.3
20260904234529 91 142 0.0 1.0 0.00 0.00 0.00 28 1016.7
20260904233926 91 129 0.0 4.0 0.00 0.00 0.00 28 1016.3
20260904233427 91 134 3.0 4.0 0.00 0.00 0.00 28 1016.3
20260904232908 91 152 2.0 3.0 0.00 0.00 0.00 28 1016.3
20260904232306 92 111 1.0 4.0 0.00 0.00 0.00 28 1016.0
20260904231705 92 130 0.0 7.0 0.00 0.00 0.00 27 1016.0
20260904231059 93 189 0.0 2.0 0.00 0.00 0.00 26 1016.0
20260904230416 93 138 0.0 4.0 0.00 0.00 0.00 26 1016.3
20260904230125 94 150 1.0 4.0 0.00 0.00 0.00 25 1016.0
20260904225319 94 135 0.0 2.0 0.00 0.00 0.00 25 1016.3
20260904224813 94 148 0.0 2.0 0.00 0.00 0.00 25 1016.0
20260904224256 94 136 0.0 2.0 0.00 0.00 0.00 25 1016.0
20260904223641 95 183 0.0 0.0 0.00 0.00 0.00 25 1015.6
20260904223029 94 203 0.0 0.0 0.00 0.00 0.00 25 1016.0
20260904222719 94 152 0.0 1.0 0.00 0.00 0.00 25 1016.0
20260904221822 95 125 0.0 1.0 0.00 0.00 0.00 25 1016.3
20260904221403 94 146 0.0 0.0 0.00 0.00 0.00 25 1016.0
20260904220634 95 162 0.0 0.0 0.00 0.00 0.00 24 1016.0
20260904220000 95 181 0.0 8.0 0.00 0.00 0.00 24 1016.0
20260904215417 94 143 4.0 8.0 0.00 0.00 0.00 25 1016.0
20260904215138 94 134 0.0 0.0 0.00 0.00 0.00 25 1016.3
20260904214407 94 140 1.0 4.0 0.00 0.00 0.00 25 1016.0
20260904214235 93 118 0.0 7.0 0.00 0.00 0.00 26 1016.3
20260904213126 94 133 4.0 7.0 0.00 0.00 0.00 26 1016.3
20260904212450 94 170 0.0 8.0 0.00 0.00 0.00 26 1016.3
20260904212055 94 117 3.0 8.0 0.00 0.00 0.00 26 1016.3
20260904211316 94 151 1.0 8.0 0.00 0.00 0.00 26 1016.7
20260904210921 95 138 0.0 11.0 0.00 0.00 0.00 25 1016.3
20260904210414 97 125 1.0 3.0 0.00 0.00 0.00 24 1016.7
20260904205526 98 141 0.0 9.0 0.00 0.00 0.00 23 1016.3
20260904204850 97 111 3.0 7.0 0.00 0.00 0.00 23 1016.7
20260904204005 96 136 3.0 4.0 0.00 0.00 0.00 25 1016.7
20260904203339 95 196 0.0 3.0 0.00 0.00 0.00 25 1017.0
20260904202828 95 226 0.0 3.0 0.00 0.00 0.00 25 1017.0
20260904202232 97 137 0.0 1.0 0.00 0.00 0.00 24 1016.7
20260904201659 99 184 0.0 11.0 0.00 0.00 0.00 22 1017.0
20260904200826 100 177 0.0 11.0 0.00 0.00 0.00 23 1017.0
20260904200325 99 210 4.0 7.0 0.00 0.00 0.00 23 1017.0